STARLINK-1368, 45540

Orbit data source: Space-Track

STARLINK-1368, 45540 is a payload satellite owned by SpaceX/Seattle (US) in LEO that was launched on Wed, 22 Apr 2020 UTC via an FALCON 9 launch vehicle from the Air Force Eastern Test Range (AFETR). Payload-class satellites include a variety of spacecraft equipped with specific instruments for various scientific and technological missions. These include communications satellites like Starlink; space stations such as the ISS; scientific satellites like the Hubble; Earth observation satellites from companies like Planet Labs, Umbra, and HawkEye 360; GPS; miniature CubeSats for education and research; and military/defense satellites.

Loading next visibility...
Identifier
45540, 2020-025K
Orbit
LEO
Country
Flag of USUS
Related business
Manufacturer
SpaceX/Seattle
Mission
Operational Commercial Communications
Bus & Motor
STARLINK, Unknown motor
Mass
260 kg wet, ~248 kg dry
Launch date (UTC)
2020-04-22 (6 years ago)
Launch vehicle
FALCON 9
Launch site
Air Force Eastern Test Range (AFETR)
Object type
Payload
Rocket body
Debris
Shape & HBR
Box + 1 Pan, 10.1 m
Radar Cross Section
13.562 m², Large (>1 m²)

Expand to show TLE details & history
Last TLE update: 10 hours ago

TLE from 10 hours ago
0 STARLINK-1368
1 45540U 20025K   26123.60712285  .00053029  00000-0  15692-2 0  9996
2 45540  53.1585 205.6603 0003177   9.0454 351.0605 15.34403248333585
Epoch: 2026-05-03T14:34Z
TLE epoch observation values (Epoch: 2026-05-03T14:34:15.414Z)
Latitude
-0.00003°
Longitude
125.58781°
Altitude
461.448 km
Speed
7.638 km/s
True Right ascension
13h 42m 38s
True Declination
0° 00' 00"
Sunlit
Object was in full shadow at epoch
Visualization orbit readout
Latitude
Unknown
Longitude
Unknown
Altitude
Unknown
Speed
Unknown
Apparent Right ascension
Unknown
Apparent Declination
Unknown
Sunlit
N/A
Visualization observer readout
Local Sidereal Time
08:18:03
Azimuth
Unknown
Elevation
Unknown
Doppler factor
Unknown
Orbital elements
Apogee altitude
465.124 km
Perigee altitude
460.777 km
Semi-major axis
6,841.088 km
Eccentricity
0.00032
Inclination
53.1585°
RAAN
205.6603°
Arg. of periapsis
9.0454°
True anomaly
351.05484°
Mean anomaly
351.0605°
Eccentric anomaly
351.05767°
Mean motion
3.8358 °/min
Orbital period
93.85 mins
BSTAR
0.0015692
Loading maneuver chart data...
Computing Atmospheric mass density...

Documentation

Showing up to 5 results
|